Yakima, WA

5:31 PM PST on February 22, 2018 (GMT -0800)
Yakima Air Term-McAllister

Weather History for KYKM - September, 2012

Change the Weather History Date:

Sunday, September 16, 2012

  Actual Average Record
Temperature  
Mean Temperature 67 °F 61 °F  
Max Temperature 86 °F 78 °F 94 °F (1981)
Min Temperature 48 °F 43 °F 33 °F (1965)
Degree Days  
Heating Degree Days 0 5  
Month to date heating degree days 38 55  
Since 1 July heating degree days 58 103  
Cooling Degree Days 2 1  
Month to date cooling degree days 28 25  
Year to date cooling degree days 653 465  
Growing Degree Days 17 (Base 50)    
Moisture  
Dew Point 40 °F    
Average Humidity 43    
Maximum Humidity 71    
Minimum Humidity 14    
Precipitation  
Precipitation 0.00 in 0.01 in 0.83 in (1954)
Month to date precipitation 0.04 0.18  
Year to date precipitation 5.52 4.95  
Snow  
Snow 0.00 in 0.00 in 0.00 in (2002)
Month to date snowfall 0.0 0.0  
Year to date snowfall 21.5 8.6  
Since 1 July snowfall 0.0 0.0  
Snow Depth 0.00 in    
Sea Level Pressure  
Sea Level Pressure 30.12 in    
Wind  
Wind Speed 5 mph (West)    
Max Wind Speed 14 mph    
Max Gust Speed 25 mph    
Visibility 9 miles    
Events      
T = Trace of Precipitation, MM = Missing Value Source: NWS Daily Summary

Daily Weather History Graph

Daily Weather History Graph

Search for Another Location

Airport or City:

Trip Planner

Search our weather history database for the weather conditions in past years. The results will help you decide how hot, cold, wet, or windy it might be!

Date:

Astronomy

Sep. 16, 2012 Rise Set
Actual Time 6:42 AM PDT 7:10 PM PDT
Civil Twilight 6:11 AM PDT 7:40 PM PDT
Nautical Twilight 5:35 AM PDT 8:16 PM PDT
Astronomical Twilight 4:58 AM PDT 8:53 PM PDT
Moon 7:33 AM PDT (9/16) 7:10 PM PDT (9/16)
Length of Visible Light 13h 29m
Length of Day
12h 28m
New Moon, 1% of the Moon is Illuminated
Sep 16
New Moon
Sep 22
First Quarter
Sep 29
Full
Oct 8
Last Quarter
Oct 15
New

Hourly Weather History & Observations

Time (PDT) Temp. Dew Point Humidity Pressure Visibility Wind Dir Wind Speed Gust Speed Precip Events Conditions
12:53 AM 60.1 °F 41.0 °F 49% 30.08 in 10.0 mi West 3.5 mph - N/A   Clear
1:53 AM 60.1 °F 41.0 °F 49% 30.09 in 10.0 mi West 6.9 mph - N/A   Clear
2:53 AM 51.1 °F 39.9 °F 66% 30.11 in 10.0 mi West 6.9 mph - N/A   Clear
3:53 AM 55.9 °F 39.9 °F 55% 30.11 in 10.0 mi West 6.9 mph - N/A   Clear
4:53 AM 48.9 °F 39.9 °F 71% 30.11 in 10.0 mi West 10.4 mph - N/A   Clear
5:53 AM 48.9 °F 39.0 °F 69% 30.12 in 7.0 mi WSW 6.9 mph - N/A   Clear
6:53 AM 50.0 °F 39.0 °F 66% 30.15 in 7.0 mi West 8.1 mph - N/A   Haze
7:53 AM 54.0 °F 41.0 °F 62% 30.17 in 6.0 mi West 8.1 mph - N/A   Haze
8:53 AM 59.0 °F 43.0 °F 55% 30.18 in 4.0 mi WSW 5.8 mph - N/A   Haze
9:53 AM 69.1 °F 39.9 °F 35% 30.17 in 3.0 mi WNW 3.5 mph - N/A   Smoke
10:53 AM 75.0 °F 39.9 °F 28% 30.16 in 3.0 mi Calm Calm - N/A   Smoke
11:53 AM 79.0 °F 37.9 °F 23% 30.15 in 9.0 mi WNW 5.8 mph - N/A   Smoke
12:53 PM 82.9 °F 36.0 °F 19% 30.14 in 10.0 mi Variable 3.5 mph - N/A   Smoke
1:53 PM 84.0 °F 34.0 °F 17% 30.11 in 10.0 mi Calm Calm - N/A   Clear
2:53 PM 86.0 °F 32.0 °F 14% 30.10 in 10.0 mi Calm Calm - N/A   Clear
3:53 PM 86.0 °F 33.1 °F 15% 30.09 in 10.0 mi Calm Calm - N/A   Clear
4:53 PM 84.0 °F 37.0 °F 19% 30.08 in 10.0 mi WSW 4.6 mph - N/A   Clear
5:53 PM 80.1 °F 39.0 °F 23% 30.07 in 10.0 mi South 3.5 mph - N/A   Clear
6:53 PM 72.0 °F 41.0 °F 33% 30.08 in 10.0 mi Calm Calm - N/A   Overcast
7:53 PM 62.1 °F 45.0 °F 53% 30.09 in 9.0 mi West 5.8 mph - N/A   Clear
8:53 PM 59.0 °F 43.0 °F 55% 30.10 in 10.0 mi WNW 5.8 mph - N/A   Clear
9:53 PM 55.0 °F 45.0 °F 69% 30.11 in 10.0 mi West 6.9 mph 18.4 mph N/A   Clear
10:53 PM 54.0 °F 43.0 °F 66% 30.11 in 10.0 mi WNW 6.9 mph - N/A   Clear
11:53 PM 50.0 °F 39.9 °F 68% 30.11 in 10.0 mi WNW 6.9 mph - N/A   Clear